• Currently

    Reported at Lexington, Jim Kelly Field Airport, NE
    2:35 PM CST SAT MAY 27 2017
  • 66°F19°C
  • Overcast
    Overcast
  • Feels Like:66°F19°CDew Point:54°F12°CHumidity:64% Winds:NNW 15 mph G 1824 kph G 29Pressure:29.97 in1015 hPaVisibility:10.00 miles16090.00 meters
Time Weather Temp Dew Point
Humidity Winds Visibility Pressure Precipitation
1 hr 24 hr
Saturday, May 27
15:55 15:55 Cloudy Cloudy 66°F19°C 54°F12°C 65% NNW 13 mphNNW 20 kph 10.0 miles16.1 km 29.97 in1015 hPa 0.00 in0.00 mm --
15:35 15:35 Cloudy Cloudy 67°F19°C 54°F12°C 64% NNW 15 mphNNW 24 kph 10.0 miles16.1 km 29.97 in1015 hPa 0.00 in0.00 mm --
15:15 15:15 Cloudy Cloudy 66°F19°C 53°F12°C 63% NNW 10 mphNNW 17 kph 10.0 miles16.1 km 29.97 in1015 hPa 0.00 in0.00 mm --
14:55 14:55 Cloudy Cloudy 67°F20°C 54°F12°C 62% N 10 mphN 17 kph 10.0 miles16.1 km 29.97 in1015 hPa 0.00 in0.00 mm --
14:35 14:35 Cloudy Cloudy 67°F20°C 54°F12°C 64% N 13 mphN 20 kph 10.0 miles16.1 km 29.97 in1015 hPa 0.00 in0.00 mm --
14:15 14:15 Cloudy Cloudy 67°F19°C 53°F12°C 62% N 10 mphN 17 kph 10.0 miles16.1 km 29.97 in1015 hPa 0.00 in0.00 mm --
13:55 13:55 Cloudy Cloudy 67°F20°C 54°F12°C 62% N 12 mphN 19 kph 10.0 miles16.1 km 29.97 in1015 hPa 0.00 in0.00 mm --
13:35 13:35 Mostly Cloudy Mostly Cloudy 68°F20°C 54°F12°C 60% N 9 mphN 15 kph 10.0 miles16.1 km 29.97 in1015 hPa 0.00 in0.00 mm --
13:15 13:15 Partly Cloudy Partly Cloudy 70°F21°C 55°F13°C 60% NNE 9 mphNNE 15 kph 10.0 miles16.1 km 29.97 in1015 hPa 0.00 in0.00 mm --
12:55 12:55 Mostly Cloudy Mostly Cloudy 69°F20°C 54°F12°C 60% NNE 9 mphNNE 15 kph 10.0 miles16.1 km 29.97 in1015 hPa 0.00 in0.00 mm --
12:35 12:35 Partly Cloudy Partly Cloudy 69°F20°C 55°F13°C 61% NE 10 mphNE 17 kph 10.0 miles16.1 km 29.97 in1015 hPa 0.00 in0.00 mm --
12:15 12:15 Sunny Sunny 68°F20°C 54°F12°C 61% N 5 mphN 7 kph 10.0 miles16.1 km 29.97 in1015 hPa 0.00 in0.00 mm --
11:55 11:55 Sunny Sunny 67°F20°C 55°F13°C 64% NE 10 mphNE 17 kph 10.0 miles16.1 km 29.97 in1015 hPa 0.00 in0.00 mm --
11:35 11:35 Sunny Sunny 66°F19°C 53°F12°C 63% NNE 9 mphNNE 15 kph 10.0 miles16.1 km 29.97 in1015 hPa 0.00 in0.00 mm --
11:15 11:15 Sunny Sunny 66°F19°C 54°F12°C 65% NE 10 mphNE 17 kph 10.0 miles16.1 km 29.94 in1014 hPa 0.00 in0.00 mm --
10:55 10:55 Sunny Sunny 65°F18°C 52°F11°C 63% NE 8 mphNE 13 kph 10.0 miles16.1 km 29.94 in1014 hPa 0.00 in0.00 mm --
10:35 10:35 Sunny Sunny 65°F18°C 52°F11°C 65% NE 8 mphNE 13 kph 10.0 miles16.1 km 29.94 in1014 hPa 0.00 in0.00 mm --
10:15 10:15 Sunny Sunny 64°F18°C 52°F11°C 65% ENE 10 mphENE 17 kph 10.0 miles16.1 km 29.94 in1014 hPa 0.00 in0.00 mm --
09:55 09:55 Sunny Sunny 64°F18°C 53°F12°C 69% NE 9 mphNE 15 kph 10.0 miles16.1 km 29.94 in1014 hPa 0.00 in0.00 mm --
09:35 09:35 Sunny Sunny 62°F17°C 52°F11°C 68% ENE 12 mphENE 19 kph 10.0 miles16.1 km 29.94 in1014 hPa 0.00 in0.00 mm --
09:15 09:15 Sunny Sunny 62°F16°C 52°F11°C 71% ENE 10 mphENE 17 kph 10.0 miles16.1 km 29.91 in1013 hPa 0.00 in0.00 mm --
08:55 08:55 Sunny Sunny 60°F16°C 53°F11°C 76% ENE 10 mphENE 17 kph 10.0 miles16.1 km 29.91 in1013 hPa 0.00 in0.00 mm --
08:35 08:35 Sunny Sunny 58°F15°C 53°F12°C 82% NE 7 mphNE 11 kph 10.0 miles16.1 km 29.91 in1013 hPa 0.00 in0.00 mm --
08:15 08:15 Sunny Sunny 56°F14°C 52°F11°C 85% ENE 7 mphENE 11 kph 10.0 miles16.1 km 29.91 in1013 hPa 0.00 in0.00 mm --
07:55 07:55 Sunny Sunny 56°F13°C 51°F11°C 86% ENE 7 mphENE 11 kph 10.0 miles16.1 km 29.91 in1013 hPa 0.00 in0.00 mm --
07:35 07:35 Sunny Sunny 55°F13°C 51°F11°C 85% NE 9 mphNE 15 kph 10.0 miles16.1 km 29.91 in1013 hPa 0.00 in0.00 mm --
07:15 07:15 Sunny Sunny 55°F13°C 51°F11°C 88% NE 12 mphNE 19 kph 10.0 miles16.1 km 29.91 in1013 hPa 0.00 in0.00 mm --
06:55 06:55 Sunny Sunny 55°F12°C 51°F11°C 88% NNE 13 mphNNE 20 kph 10.0 miles16.1 km 29.91 in1013 hPa 0.00 in0.00 mm --
06:35 06:35 Sunny Sunny 55°F12°C 51°F11°C 89% NNE 9 mphNNE 15 kph 10.0 miles16.1 km 29.91 in1013 hPa 0.00 in0.00 mm --
06:15 06:15 Sunny Sunny 55°F12°C 52°F11°C 90% NE 8 mphNE 13 kph 10.0 miles16.1 km 29.91 in1013 hPa 0.00 in0.00 mm --
05:55 05:55 Clear Clear 55°F13°C 52°F11°C 90% NNE 8 mphNNE 13 kph 10.0 miles16.1 km 29.91 in1013 hPa 0.00 in0.00 mm --
05:35 05:35 Clear Clear 55°F13°C 52°F11°C 90% NNE 6 mphNNE 9 kph 10.0 miles16.1 km 29.91 in1013 hPa 0.00 in0.00 mm --
05:15 05:15 Clear Clear 56°F13°C 53°F12°C 90% E 3 mphE 6 kph 10.0 miles16.1 km 29.88 in1012 hPa 0.00 in0.00 mm --
04:55 04:55 Clear Clear 56°F13°C 54°F12°C 92% ESE 6 mphESE 9 kph 10.0 miles16.1 km 29.88 in1012 hPa 0.00 in0.00 mm --
04:35 04:35 Clear Clear 56°F14°C 54°F12°C 91% E 5 mphE 7 kph 10.0 miles16.1 km 29.91 in1013 hPa 0.00 in0.00 mm --
04:15 04:15 Partly Cloudy With Nearby Thunderstorms Partly Cloudy With Nearby Thunderstorms 57°F14°C 55°F12°C 92% E 7 mphE 11 kph 10.0 miles16.1 km 29.88 in1012 hPa 0.00 in0.00 mm --
03:55 03:55 Mostly Cloudy Mostly Cloudy 57°F14°C 55°F13°C 92% ENE 8 mphENE 13 kph 10.0 miles16.1 km 29.88 in1012 hPa 0.04 in25.81 mm --
03:35 03:35 58°F14°C 56°F13°C 91% CalmCalm miles km 29.91 in1013 hPa 0.04 in25.81 mm --
03:15 03:15 Cloudy Cloudy 58°F14°C 56°F13°C 91% ESE 16 mphESE 26 kph miles km 29.88 in1012 hPa 0.02 in12.90 mm --
02:55 02:55 Cloudy Cloudy 58°F14°C 55°F13°C 90% E 7 mphE 11 kph miles km 29.91 in1013 hPa 0.12 in77.42 mm --
02:35 02:35 Cloudy With Rain Cloudy With Rain 58°F14°C 54°F12°C 87% ENE 7 mphENE 11 kph 10.0 miles16.1 km 29.94 in1014 hPa 0.10 in64.52 mm --
02:15 02:15 Cloudy With Rain Cloudy With Rain 60°F15°C 53°F12°C 80% E 5 mphE 7 kph 5.0 miles8.0 km 29.97 in1015 hPa 0.06 in38.71 mm --
01:55 01:55 Cloudy With Rain Cloudy With Rain 59°F15°C 55°F13°C 86% CalmCalm 10.0 miles16.1 km 29.97 in1015 hPa 0.09 in58.06 mm --
01:35 01:35 Cloudy With Rain Cloudy With Rain 60°F15°C 55°F12°C 84% CalmCalm 5.0 miles8.0 km 29.97 in1015 hPa 0.06 in38.71 mm --
01:15 01:15 Cloudy With Rain Cloudy With Rain 61°F16°C 53°F12°C 76% SW 8 mphSW 13 kph 10.0 miles16.1 km 29.97 in1015 hPa 0.01 in6.45 mm --
00:55 00:55 Cloudy With Light Rain Cloudy With Light Rain 61°F16°C 51°F11°C 70% CalmCalm 10.0 miles16.1 km 29.94 in1014 hPa 0.00 in0.00 mm --
00:35 00:35 Mostly Cloudy Mostly Cloudy 62°F16°C 51°F11°C 69% NNE 5 mphNNE 7 kph 10.0 miles16.1 km 29.91 in1013 hPa 0.00 in0.00 mm --
00:15 00:15 Partly Cloudy Partly Cloudy 64°F18°C 50°F10°C 62% ESE 8 mphESE 13 kph 10.0 miles16.1 km 29.91 in1013 hPa 0.00 in0.00 mm --